DECAYED

STARLINK-4765, 53937 (Decayed)

Orbit data source: Space-Track

STARLINK-4765, 53937 was a payload satellite owned by SpaceX/Seattle (US) in LEO that was launched on Sat, 24 Sep 2022 UTC via an FALCON 9 launch vehicle from the Air Force Eastern Test Range (AFETR). Payload-class satellites include a variety of spacecraft equipped with specific instruments for various scientific and technological missions. These include communications satellites like Starlink; space stations such as the ISS; scientific satellites like the Hubble; Earth observation satellites from companies like Planet Labs, Umbra, and HawkEye 360; GPS; miniature CubeSats for education and research; and military/defense satellites.

Not visible in the next 10 days
Identifier
53937, 2022-119BD
Orbit
Decayed
Country
Flag of USUS
Related business
Manufacturer
SpaceX/Seattle
Mission
Decayed Commercial Communications
Bus & Motor
STARLINK, Unknown motor
Mass
305 kg wet, ~290 kg dry
Launch date (UTC)
2022-09-24 (4 years ago)
Launch vehicle
FALCON 9
Launch site
Air Force Eastern Test Range (AFETR)
Object type
Payload
Rocket body
Debris
Shape & HBR
Box + 1 Pan, 10.1 m
Radar Cross Section
13.562 m², Large (>1 m²)

Expand to show TLE details & history
Last TLE update: 1 year ago

TLE from 1 year ago
0 STARLINK-4765
1 53937U 22119BD  25013.99176802  .25386841  12559-4  18651-3 0  9992
2 53937  53.2045 349.4785 0008031 188.8319 277.8308 16.52412775128723
Epoch: 2025-01-13T23:48Z
TLE epoch observation values (Epoch: 2025-01-13T23:48:08.756Z)
Latitude
50.28781°
Longitude
-4.81554°
Altitude
138.12 km
Speed
7.83 km/s
True Right ascension
07h 03m 42s
True Declination
50° 06' 09"
Sunlit
Object was in full shadow at epoch
Visualization orbit readout
Latitude
Unknown
Longitude
Unknown
Altitude
Unknown
Speed
Unknown
Apparent Right ascension
Unknown
Apparent Declination
Unknown
Sunlit
N/A
Visualization observer readout
Local Sidereal Time
21:31:35
Azimuth
Unknown
Elevation
Unknown
Doppler factor
Unknown
Orbital elements
Apogee altitude
138.481 km
Perigee altitude
128.022 km
Semi-major axis
6,511.389 km
Eccentricity
0.0008
Inclination
53.2045°
RAAN
349.4785°
Arg. of periapsis
188.8319°
True anomaly
277.73962°
Mean anomaly
277.8308°
Eccentric anomaly
277.78521°
Mean motion
4.13079 °/min
Orbital period
87.15 mins
BSTAR
0.00018651
Loading maneuver chart data...
Computing Atmospheric mass density...
Loading historical data...
Loading historical data...
Loading historical data...
Loading historical data...
Loading historical data...
Loading historical data...
Loading historical data...

Documentation

Showing up to 5 results
|